Regional Weather Roundup
Issued by NWS

Home | Current Version | Previous Version | Graphics & Text | Print | Product List | Glossary On
Versions: 1 2 3 4 5 6 7 8 9 10 11 12 13 14 15 16 17 18 19 20 21 22 23 24 25 26 27 28 29 30 31 32 33 34 35 36 37 38 39 40 41 42 43 44 45 46 47 48 49 50
634
ASUS43 KFSD 230102
RWRSD

WEATHER ROUNDUP FOR SOUTH DAKOTA
NATIONAL WEATHER SERVICE SIOUX FALLS SD
800 PM CDT WED MAR 22 2017

NOTE: "FAIR" INDICATES FEW OR NO CLOUDS BELOW 12,000 FEET WITH NO
SIGNIFICANT WEATHER AND/OR OBSTRUCTIONS TO VISIBILITY.


SDZ001>005-009-010-012>017-230200-
NORTHWEST AND NORTH CENTRAL SOUTH DAKOTA

CITY           SKY/WX    TMP DP  RH WIND       PRES   REMARKS
BUFFALO          N/A     57  39  51 E3        29.71F
FAITH            N/A     52  39  61 E8        29.77S
MOBRIDGE       PTCLDY    44  28  53 SE23G33   29.84F
$$

SDZ012>016-024>037-041>051-057-063-072>074-230200-
SOUTHWEST AND SOUTH CENTRAL SOUTH DAKOTA

CITY           SKY/WX    TMP DP  RH WIND       PRES   REMARKS
RAPID CTY ARPT CLOUDY    54  40  59 NW7       29.78R
PIERRE         CLOUDY    50  30  46 SE18G30   29.86S
CUSTER         CLOUDY    55  37  50 SW9       29.86R
ELLSWORTH AFB  CLOUDY    53  42  66 W7        29.78R
PHILIP         CLOUDY    60  39  45 SE9       29.77R
PINE RIDGE     CLOUDY    61  39  44 S20G28    29.79F
SPEARFISH      FAIR      55  41  58 CALM      29.80S
WINNER         FAIR      51  29  42 S18G30    29.92S
$$

SDZ004>011-016>023-039-040-230200-
NORTHEAST SOUTH DAKOTA

CITY           SKY/WX    TMP DP  RH WIND       PRES   REMARKS
ABERDEEN       CLOUDY    35  23  61 SE14      30.05F WCI  26
WATERTOWN      CLOUDY    33  24  69 SE21G32   30.07F WCI  21
BROOKINGS      CLOUDY    35  24  64 SE22G30   30.10F WCI  23
SISSETON         N/A     33  27  78 S25       30.10F WCI  20
$$

SDZ017-020-022-023-036>040-048>070-230200-
SOUTHEAST SOUTH DAKOTA

CITY           SKY/WX    TMP DP  RH WIND       PRES   REMARKS
SIOUX FALLS    CLOUDY    40  25  55 S18       30.14S
HURON          PTCLDY    38  25  59 SE15G25   30.03F
CHAMBERLAIN    CLOUDY    46  28  50 SE14      29.95S
MITCHELL       CLEAR     40  26  57 SE21      30.05F
YANKTON        CLOUDY    43  27  52 SE16      30.10F
$$

ABBREVIATIONS USED IN REMARKS
   TC - TEMPERATURE IN CELSIUS
  WCI - WIND CHILL INDEX
   HX - HEAT INDEX
  VSB - VISIBILITY





USA.gov is the U.S. government's official web portal to all federal, state and local government web resources and services.